Regional Weather Roundup
Issued by NWS

Home | Current Version | Previous Version | Text Only | Print | Product List | Glossary On
Versions: 1 2 3 4 5 6 7 8 9 10 11 12 13 14 15 16 17 18 19 20 21 22 23 24 25 26 27 28 29 30 31 32 33 34 35 36 37 38 39 40 41 42 43 44 45 46 47 48 49 50
000
ASUS46 KPQR 301010
RWROR

OREGON REGIONAL WEATHER ROUNDUP
NATIONAL WEATHER SERVICE PORTLAND OR
300 AM PDT SUN AUG 30 2015

NOTE: "FAIR" INDICATES FEW OR NO CLOUDS BELOW 12,000 FEET WITH
NO SIGNIFICANT WEATHER AND/OR OBSTRUCTIONS TO VISIBILITY.

ORZ001>013-301100-
NORTHWEST OREGON


CITY           SKY/WX    TMP DP  RH WIND       PRES   REMARKS
ASTORIA        LGT RAIN  61  58  90 S16G25    29.78S
NEWPORT        FAIR      59  55  88 S14       29.91R
PORTLAND       LGT RAIN  61  59  93 S8        29.84R
VANCOUVER WA   LGT RAIN  61  58  90 CALM      29.83S
SCAPPOOSE      CLOUDY    59  56  89 SW6       29.81F
HILLSBORO      CLOUDY    59  57  93 S7        29.83S
AURORA         RAIN      58  57  97 SW7       29.86R FOG
MCMINNVILLE    LGT RAIN  59  56  89 S9        29.86R
SALEM          LGT RAIN  60  56  86 S13       29.86S
CORVALLIS      CLOUDY    59  55  88 SW7       29.91R
EUGENE         LGT RAIN  62  55  77 SW15G26   29.90R
$$

ORZ021-028-301100-
SOUTHWEST OREGON


CITY           SKY/WX    TMP DP  RH WIND       PRES   REMARKS
NORTH BEND     CLOUDY    61  59  94 S10       29.94S
BROOKINGS      CLOUDY    61  61 100 S8        30.01F FOG
ROSEBURG       CLOUDY    66  52  60 CALM      29.92S
SEXTON SUMMIT  FOG       50  50 100 S14G21    30.00F VSB 1/4
MEDFORD        FAIR      62  48  60 W3        29.97R
$$

ORZ014>016-041-301100-
COLUMBIA GORGE


CITY           SKY/WX    TMP DP  RH WIND       PRES   REMARKS
TROUTDALE      LGT RAIN  61  57  87 SW9       29.84R
THE DALLES     MOCLDY    62  54  74 E5        29.80F
$$

ORZ029>031-041-044-049-050-061>064-502-503-505>511-301100-
EASTERN OREGON


CITY           SKY/WX    TMP DP  RH WIND       PRES   REMARKS
REDMOND        FAIR      57  42  57 S10       29.91R
BEND           FAIR      54  41  62 S8        29.93S
PRINEVILLE     FAIR      55  41  58 S5        29.92R
KLAMATH FALLS  FAIR      48  44  86 S6        30.02S
LAKEVIEW       FAIR      50  39  66 SE10        N/A
HERMISTON      FAIR      54  45  71 E3        29.81F
PENDLETON      MOCLDY    53  42  66 SE7       29.84R
JOHN DAY       FAIR      56  40  56 E5        29.95S
MEACHAM        FAIR      40  36  86 CALM      29.92S
LA GRANDE      FAIR      48  32  53 CALM      29.90S
BAKER CITY     FAIR      45  41  86 E6        29.93S
BURNS          FAIR      45  32  60 CALM      30.00R
ROME             N/A     60  34  37 S12       29.99R
ONTARIO        FAIR      63  42  46 W9        29.89R
$$



USA.gov is the U.S. government's official web portal to all federal, state and local government web resources and services.